Change the Weather History Date:

Wednesday, November 21, 2012

  Actual Average Record
Temperature  
Mean Temperature 76 °F -  
Max Temperature 83 °F 81 °F - ()
Min Temperature 69 °F 62 °F - ()
Cooling Degree Days 11    
Growing Degree Days 26 (Base 50)    
Moisture  
Dew Point 60 °F    
Average Humidity 57    
Maximum Humidity 68    
Minimum Humidity 42    
Precipitation  
Precipitation 0.00 in 0.01 in - ()
Sea Level Pressure  
Sea Level Pressure 29.95 in    
Wind  
Wind Speed 3 mph ()    
Max Wind Speed 12 mph    
Max Gust Speed -    
Visibility 6.4 miles    
Events      
T = Trace of Precipitation, MM = Missing Value Source: Averaged Metar Reports

Daily Weather History Graph

Daily Weather History Graph

Search for Another Location

Airport or City:

Trip Planner

Search our weather history database for the weather conditions in past years. The results will help you decide how hot, cold, wet, or windy it might be!

Date:

Astronomy

Nov. 21, 2012 Rise Set
Actual Time 5:50 AM IRST 4:38 PM IRST
Civil Twilight 5:25 AM IRST 5:02 PM IRST
Nautical Twilight 4:57 AM IRST 5:30 PM IRST
Astronomical Twilight 4:30 AM IRST 5:58 PM IRST
Moon 12:06 PM IRST (11/21) 12:18 AM IRST (11/22)
Length of Visible Light 11h 37m
Length of Day
10h 48m
First Quarter, 58% of the Moon is Illuminated
Nov 21
First Quarter
Nov 28
Full
Dec 6
Last Quarter
Dec 13
New
Dec 20
First Quarter

Hourly Weather History & Observations

Time (IRST) Temp. Heat Index Dew Point Humidity Pressure Visibility Wind Dir Wind Speed Gust Speed Precip Events Conditions
12:30 AM 74 °F - 64 °F 62% 29.95 in 6 mi NE 4.5 mph - -  
1:20 AM 66.2 °F - 51.8 °F 60% 29.95 in - Calm Calm - N/A   Clear
2:20 AM 66.2 °F - 51.8 °F 60% 29.95 in - Calm Calm - N/A   Clear
3:30 AM 73 °F - 63 °F 64% 29.94 in 6 mi NE 4.5 mph - -  
4:20 AM 64.4 °F - 51.8 °F 64% 29.95 in - Calm Calm - N/A   Clear
5:20 AM 64.4 °F - 51.8 °F 64% 29.98 in - Calm Calm - N/A   Clear
6:30 AM 72 °F - 63 °F 67% 29.99 in 6 mi NNE 4.5 mph - -   Scattered Clouds
8:20 AM 78.8 °F - 59.0 °F 51% 30.01 in - Calm Calm - N/A   Clear
9:30 AM 82 °F - 65 °F 48% 30.02 in 7 mi South 4.5 mph - -   Scattered Clouds
10:20 AM 84.2 °F 83.8 °F 59.0 °F 42% 29.98 in - Calm Calm - N/A   Clear
12:30 PM 82 °F - 65 °F 48% 29.95 in 7 mi SSW 6.7 mph - -   Scattered Clouds
1:20 PM 84.2 °F 83.8 °F 59.0 °F 42% 29.92 in 6.2 mi South 6.9 mph - N/A   Scattered Clouds
2:20 PM 84.2 °F 83.8 °F 59.0 °F 42% 29.89 in 6.2 mi South 11.5 mph - N/A   Partly Cloudy
3:30 PM 80 °F - 67 °F 56% 29.90 in 7 mi SSW 8.9 mph - -   Scattered Clouds
5:20 PM 77.0 °F - 60.8 °F 57% 29.92 in - Calm Calm - N/A   Clear
6:30 PM 79 °F - 65 °F 54% 29.94 in 7 mi WSW 6.7 mph - -  
7:20 PM 75.2 °F - 62.6 °F 65% 29.95 in - West 6.9 mph - N/A   Clear
8:20 PM 73.4 °F - 60.8 °F 65% 29.95 in - Calm Calm - N/A   Clear
9:30 PM 77 °F - 65 °F 58% 29.95 in 6 mi WNW 4.5 mph - -  
10:20 PM 69.8 °F - 59.0 °F 68% 29.95 in - Calm Calm - N/A   Clear
11:20 PM 69.8 °F - 59.0 °F 68% 29.92 in - Calm Calm - N/A   Clear